Temperature
9 9 8 9 10 10 10 10 10 11 12 11 11 11 12 12 12 12 13 13 13 12 12 12 11 11 11 10 10 10 10 9 9 9 9 9 9 9 9 9 9 9 9 10
9 8 9 10 10 10 10 9 9 10 11 11 10 10 11 12 11 12 12 12 12 12 12 11 11 10 10 10 10 9 9 9 9 9 9 9 9 8 9 9 9 9 9 9
8 9 10 10 10 9 9 9 9 9 10 10 9 9 10 11 12 12 12 12 12 11 11 11 10 10 9 9 9 9 9 9 9 9 8 8 8 8 8 8 8 8 9 9
8 9 10 9 9 9 8 9 9 9 8 8 9 7 10 10 10 11 11 11 11 11 10 10 9 9 9 9 8 8 8 8 8 8 8 8 8 8 8 8 8 8 8 8
8 9 8 8 9 9 8 9 9 8 7 7 8 7 9 10 10 10 10 11 10 10 10 9 9 8 8 8 8 8 8 7 7 7 8 8 8 8 8 8 8 8 8 8
8 9 8 8 9 9 8 8 8 7 7 6 8 8 8 9 10 10 10 10 10 9 9 9 8 8 7 7 7 7 7 7 7 7 7 7 7 7 7 7 7 7 7 7
7 8 8 8 7 8 7 6 6 6 6 6 8 8 8 10 10 10 9 9 9 9 8 8 8 7 7 7 7 7 7 7 7 7 7 7 7 7 7 7 7 7 7 7
6 6 7 7 7 6 6 6 6 6 6 7 8 7 8 9 9 10 9 9 8 8 8 7 7 7 6 6 6 6 6 6 6 6 6 6 6 6 7 7 7 7 7 7
6 6 7 7 7 7 6 6 7 6 5 6 7 8 9 9 9 8 9 8 8 8 7 7 6 6 6 6 6 6 6 6 6 6 6 6 6 6 6 6 6 6 7 6
6 5 6 7 7 6 7 6 5 5 5 6 7 7 7 7 7 7 7 7 7 7 7 6 6 6 5 6 6 5 5 6 6 6 6 6 6 6 6 6 6 6 6 6
5 4 5 5 5 5 5 5 5 5 5 5 6 7 8 7 7 7 7 7 7 7 6 6 5 5 5 5 5 5 5 5 5 5 5 5 5 5 5 5 6 6 6 6
5 4 3 5 6 6 6 6 5 4 4 5 5 6 8 7 7 7 7 7 7 6 6 5 5 5 5 5 5 5 5 5 5 5 5 5 5 5 5 5 5 5 5 5
4 3 3 4 4 4 4 5 4 4 4 4 4 5 7 7 7 7 7 6 6 6 5 5 5 4 4 4 4 4 4 5 5 5 4 4 4 4 4 5 5 5 5 5
4 2 2 3 4 3 3 4 4 3 3 4 4 5 6 6 6 6 6 6 6 5 5 5 4 4 4 4 4 4 4 4 4 4 4 4 4 4 4 4 4 4 4 4
3 2 2 2 3 3 3 3 3 3 3 3 4 5 5 5 5 6 6 6 5 5 5 4 4 4 4 4 4 4 4 4 4 4 4 4 4 4 4 4 4 4 4 4
2 1 2 2 3 3 3 3 3 3 4 4 4 4 6 6 6 5 5 5 4 4 4 4 4 3 3 3 3 3 4 3 3 3 3 3 3 3 3 3 3 3 3 3
1 1 1 2 2 2 2 3 3 3 3 4 3 4 4 4 4 4 4 4 4 4 4 3 3 3 3 3 3 3 3 3 3 3 3 3 3 3 3 3 3 3 3 3
0 0 0 1 1 1 3 4 4 3 3 3 3 4 4 4 4 4 4 4 4 3 3 3 3 3 3 3 3 3 3 2 2 2 2 3 3 3 3 3 3 3 2 2
1 0 0 0 1 2 4 4 3 2 2 3 3 3 4 4 3 3 4 4 3 3 3 2 2 3 3 2 2 2 2 2 2 2 2 2 2 2 2 2 2 2 2 2
0 0 -0 0 1 1 3 3 3 3 1 2 2 2 3 2 1 2 3 3 3 2 2 2 2 2 2 2 2 2 2 2 2 2 2 2 2 2 2 2 2 2 1 1
-1 -0 -0 -0 0 1 2 2 3 1 2 2 2 2 2 1 1 2 2 2 2 2 1 1 2 2 2 2 1 1 1 1 1 1 1 1 1 1 1 1 1 1 1 1
-0 -0 -0 -0 0 1 2 1 1 1 2 2 2 2 2 2 2 1 1 1 1 1 1 1 1 1 1 1 1 1 1 1 1 1 1 1 1 1 1 1 0 0 0 0
0 0 0 0 1 2 2 2 2 2 2 2 1 1 1 1 1 1 0 0 0 0 0 0 1 1 1 1 0 0 0 0 0 0 0 0 0 0 0 0 0 -0 -0 -0
0 1 0 -0 1 2 2 2 2 2 1 1 1 1 1 0 0 0 -0 -0 -0 -0 -0 -0 -0 -0 0 -0 -0 -0 -0 -0 -0 -0 -0 0 0 -0 -0 -0 -0 -0 -1 -1
0 -1 -1 -1 -0 1 1 1 1 1 1 1 0 0 -0 -0 -0 -1 -1 -1 -1 -1 -1 -1 -1 -1 -1 -1 -0 -0 -1 -1 -0 -0 -0 -0 -0 -1 -1 -1 -1 -1 -1 -1
-0 -1 -1 -1 0 -0 0 1 1 0 0 0 -0 -1 -1 -1 -1 -1 -1 -1 -1 -1 -1 -1 -1 -1 -1 -1 -1 -1 -1 -1 -1 -1 -1 -1 -1 -1 -1 -1 -1 -1 -1 -1
Wind_Speed
3 4 6 7 8 8 8 8 10 10 7 7 10 12 10 7 7 8 8 7 6 6 5 4 5 5 5 5 6 6 5 5 5 5 5 5 4 4 4 4 5 6 5 5
4 8 9 8 7 8 9 10 10 8 5 6 10 13 11 10 10 10 9 8 6 4 3 4 5 5 5 5 6 6 6 6 6 5 5 4 4 3 4 3 4 6 6 6
8 4 5 7 7 8 9 9 8 8 8 7 9 10 10 8 8 7 7 5 4 5 4 3 4 5 5 5 5 6 6 6 6 5 4 4 3 3 3 4 4 4 5 6
7 6 6 6 7 8 8 6 8 7 5 5 4 6 7 6 7 7 5 4 4 3 3 3 3 4 4 4 4 5 6 6 6 6 6 6 6 5 4 4 4 4 5 6
5 3 5 7 7 7 5 5 7 7 7 7 6 6 6 7 7 6 4 3 2 2 3 3 3 3 3 3 4 4 5 5 5 6 7 6 4 3 3 4 5 5 4 5
7 5 4 4 4 4 3 3 5 5 3 6 8 7 5 4 4 3 2 2 2 2 3 3 3 3 2 2 3 4 5 5 5 6 6 6 6 4 5 5 5 4 3 3
5 5 3 2 3 2 2 0 1 2 4 6 4 5 5 2 2 2 2 2 3 3 3 3 3 3 3 3 3 3 5 5 5 6 6 6 6 6 6 6 6 5 4 3
3 4 4 3 3 3 4 3 3 3 3 3 3 5 3 0 2 3 4 3 2 3 3 3 3 2 2 3 3 3 4 4 5 6 6 6 6 5 4 5 5 5 4 4
3 3 1 2 2 3 3 4 2 2 4 4 4 4 3 2 2 2 3 3 3 3 3 3 3 2 2 3 3 3 3 4 4 5 5 5 5 5 4 4 4 4 4 4
2 4 3 1 1 4 4 1 1 2 3 4 4 4 3 0 1 1 1 2 2 3 3 2 2 2 2 3 3 3 3 3 3 4 4 4 5 5 5 5 5 4 4 4
3 2 3 2 4 4 3 2 3 3 3 3 3 2 2 2 2 2 1 1 1 2 2 2 2 2 1 2 2 3 3 3 3 4 4 4 4 4 4 5 5 5 4 5
2 1 3 5 3 2 3 4 3 3 4 3 3 4 2 2 3 2 1 1 1 1 1 1 1 1 1 1 2 2 3 3 4 4 4 4 4 4 4 4 4 4 4 4
1 1 2 3 2 2 2 4 3 3 3 4 4 4 1 2 2 2 1 1 0 1 1 1 1 0 1 1 2 2 2 3 4 4 4 4 4 4 4 4 4 4 4 4
2 2 5 6 5 3 5 6 5 4 4 6 7 7 5 3 3 3 3 2 1 1 1 1 1 1 1 1 2 2 2 2 3 3 4 4 4 4 4 4 4 4 4 4
1 3 5 7 8 6 7 8 9 9 9 7 8 9 8 6 4 4 3 3 2 1 1 1 1 1 1 1 1 2 2 2 3 3 3 3 3 3 3 3 3 4 4 4
1 3 3 6 7 7 9 10 10 10 10 11 11 12 6 3 2 3 3 3 2 2 2 2 1 1 1 1 1 1 2 2 3 3 3 3 3 3 3 4 4 4 4 4
3 2 3 5 5 6 8 10 11 9 10 9 11 8 2 3 3 3 3 2 2 3 3 3 2 2 1 2 2 2 2 2 3 3 3 3 3 3 4 4 4 4 4 4
5 4 3 3 3 7 6 3 6 8 9 7 5 4 2 3 4 4 2 2 2 3 3 2 2 2 1 1 1 2 2 2 3 3 3 3 3 4 4 4 4 4 4 4
6 5 4 3 5 8 5 1 1 3 7 6 6 5 3 2 4 3 1 0 1 3 2 2 2 2 1 1 2 2 2 2 3 3 3 3 3 4 4 4 4 4 3 4
4 5 4 4 5 6 3 0 1 1 5 3 3 4 3 1 2 3 1 2 2 2 2 2 2 1 1 2 2 2 2 3 3 3 3 3 3 4 4 4 4 3 4 4
4 4 7 7 6 6 2 1 1 2 4 3 3 3 2 3 4 2 2 2 2 2 2 2 2 1 1 1 2 3 3 3 3 2 2 2 3 3 4 4 3 4 3 3
6 5 6 5 7 7 1 1 3 4 3 3 4 3 3 3 2 2 2 2 2 3 3 2 1 1 1 0 2 2 3 2 2 2 2 2 3 3 3 4 3 4 4 4
6 6 4 6 6 2 2 3 3 2 4 4 4 4 3 3 3 3 3 2 2 3 3 2 1 1 1 1 1 2 3 2 2 2 2 2 2 2 3 4 4 4 4 4
4 2 4 6 7 4 4 3 3 3 4 4 4 4 3 4 4 3 3 2 2 2 2 2 2 1 2 1 1 2 2 1 2 2 2 2 2 2 3 3 3 4 4 4
4 3 4 7 7 5 4 4 4 4 3 4 4 4 3 3 4 4 3 3 3 3 2 2 2 2 3 1 1 1 1 2 2 2 2 2 2 3 3 3 3 3 4 5
5 5 6 7 5 4 5 3 3 3 4 3 4 5 4 4 4 4 3 3 3 3 2 2 2 2 2 2 2 2 2 2 2 2 2 2 2 2 2 2 1 2 3 4
Wind_Direction
204 224 229 233 233 256 282 280 276 276 282 277 265 265 259 247 247 246 242 239 229 222 213 187 169 167 160 159 165 166 167 168 164 164 166 166 170 163 154 150 149 151 152 146
231 238 247 255 257 261 268 271 277 283 289 287 277 271 262 246 241 238 237 236 231 226 202 170 160 160 163 166 167 165 171 177 174 171 173 170 162 158 153 144 146 150 151 152
235 255 255 254 259 260 262 260 271 283 303 277 277 274 249 246 240 241 236 230 224 216 206 181 169 166 168 174 174 176 171 178 176 165 152 150 137 134 150 158 160 157 157 157
251 260 260 252 256 258 261 270 276 281 287 272 253 277 252 231 234 233 225 219 212 204 181 179 163 155 168 174 170 169 171 180 177 169 167 172 173 174 176 168 164 160 161 161
265 266 262 254 259 268 265 291 282 270 264 278 253 253 261 209 224 222 206 198 180 167 168 174 161 150 155 155 160 168 168 171 171 173 171 174 175 168 152 157 161 164 166 166
267 281 270 269 281 280 297 305 290 261 247 256 236 228 265 227 229 214 184 163 144 128 135 146 142 131 130 135 156 165 170 173 174 177 174 175 177 169 162 166 167 166 164 169
268 249 240 262 269 247 254 248 301 247 222 242 228 225 249 239 174 150 132 123 118 112 115 119 120 127 141 149 168 181 179 177 179 181 179 180 178 178 178 172 171 168 170 181
263 261 205 227 251 242 225 212 221 237 243 282 274 236 250 216 87 99 107 110 119 117 120 125 132 136 146 154 167 182 183 182 182 180 178 180 179 184 182 175 172 175 178 181
269 275 280 255 285 265 232 228 257 280 289 276 246 243 258 184 105 86 104 128 134 125 122 138 141 140 148 155 166 179 173 173 179 175 173 181 178 181 178 174 170 169 170 169
304 284 270 223 251 266 269 287 151 211 241 257 246 242 254 230 147 102 123 133 128 120 120 127 145 150 155 159 164 169 174 181 178 168 174 178 175 178 175 166 172 171 170 167
301 265 262 211 209 219 221 249 234 242 252 252 267 263 5 85 93 105 98 119 136 135 137 132 129 145 148 144 152 168 178 182 176 171 173 175 177 174 168 169 172 173 176 172
282 267 265 258 251 268 245 226 208 224 255 247 267 268 1 73 89 76 48 126 141 126 116 119 115 119 130 148 157 174 184 186 183 174 174 178 174 167 167 169 170 169 174 173
298 223 279 289 269 261 260 248 241 248 265 245 242 257 304 42 27 16 27 2 79 136 125 117 98 112 166 175 174 180 184 179 176 172 173 171 171 169 168 169 169 169 172 174
309 232 225 247 273 268 261 251 241 224 238 254 245 262 275 295 304 318 325 329 338 140 162 178 178 261 244 207 198 186 186 169 167 166 170 175 176 174 173 173 171 172 171 177
335 252 254 272 286 280 267 254 242 236 238 245 267 270 273 277 280 293 309 321 325 300 261 225 223 245 251 255 214 184 177 170 163 165 172 181 174 164 165 172 177 175 176 185
266 267 277 271 273 275 269 253 245 247 251 255 268 272 281 297 310 304 306 309 312 303 296 275 258 247 235 236 211 186 183 181 169 171 179 179 168 167 172 180 179 177 181 180
226 239 264 268 284 302 266 238 231 238 238 238 247 258 311 321 306 287 280 279 286 292 293 280 261 241 232 224 200 198 194 171 167 175 180 183 179 180 184 181 178 185 186 175
214 230 240 267 293 252 245 220 218 236 248 237 249 276 274 269 280 273 242 228 272 283 289 288 280 270 241 200 186 178 169 162 165 178 187 190 186 187 181 181 187 191 185 185
217 208 229 232 251 267 264 250 226 247 266 241 245 268 284 315 306 276 269 307 254 271 283 281 274 258 240 205 174 163 176 169 173 190 197 198 192 188 183 189 193 192 191 197
219 206 219 228 244 249 254 146 6 334 276 284 253 259 247 259 271 265 323 348 331 333 329 313 298 263 229 213 163 168 193 187 197 204 205 201 195 190 194 200 201 197 199 201
194 213 221 232 244 260 271 29 60 219 265 332 305 283 259 223 244 276 328 336 336 333 326 316 300 288 263 223 174 187 202 206 208 199 201 204 199 199 198 201 206 194 198 196
193 203 212 215 234 250 195 145 208 248 312 322 315 303 292 279 294 312 314 308 310 318 319 321 312 303 300 238 182 207 226 207 184 187 204 215 211 209 202 195 205 198 192 194
205 206 212 214 227 259 205 240 259 302 306 307 308 305 291 290 289 294 294 294 298 303 309 322 310 300 299 258 198 220 240 194 179 185 206 219 217 211 205 201 205 200 193 195
238 228 244 260 262 268 263 273 281 291 295 306 306 301 292 285 284 286 284 285 288 292 300 306 298 279 282 281 244 229 234 190 176 195 211 212 209 211 210 208 208 201 198 200
236 213 244 261 275 289 269 273 287 292 305 312 317 308 293 280 278 280 281 278 282 290 293 290 282 272 270 280 268 243 218 184 197 210 214 213 212 206 209 214 215 214 213 205
220 220 227 246 262 261 278 283 282 292 293 297 306 307 298 281 278 283 279 277 278 284 293 296 295 285 274 272 270 249 206 188 200 219 222 221 214 211 206 210 228 227 220 220
Height
1472 1474 1473 1470 1469 1468 1467 1467 1465 1462 1459 1461 1459 1456 1455 1454 1455 1455 1455 1456 1457 1458 1460 1462 1463 1464 1466 1468 1470 1471 1473 1476 1479 1481 1483 1486 1488 1491 1493 1495 1497 1499 1500 1501
1472 1471 1467 1466 1466 1466 1467 1468 1466 1462 1459 1460 1459 1454 1451 1450 1450 1450 1451 1452 1452 1454 1456 1458 1459 1461 1462 1464 1466 1468 1469 1472 1475 1477 1480 1483 1486 1488 1490 1492 1494 1496 1497 1499
1468 1466 1464 1464 1465 1465 1466 1467 1465 1464 1461 1458 1459 1454 1448 1445 1445 1446 1447 1447 1449 1451 1453 1455 1456 1457 1459 1460 1462 1464 1466 1469 1472 1474 1477 1480 1483 1485 1487 1489 1491 1493 1494 1496
1466 1463 1463 1463 1464 1463 1465 1462 1462 1462 1466 1465 1460 1462 1446 1443 1443 1442 1443 1444 1445 1448 1449 1452 1453 1454 1456 1457 1459 1461 1464 1466 1468 1471 1473 1476 1478 1480 1482 1485 1487 1489 1491 1493
1464 1462 1462 1462 1462 1461 1462 1460 1460 1462 1465 1465 1460 1463 1448 1439 1441 1440 1440 1442 1443 1445 1447 1449 1451 1452 1453 1455 1457 1458 1461 1462 1464 1467 1470 1472 1475 1477 1480 1482 1484 1486 1488 1490
1463 1461 1461 1460 1460 1460 1460 1461 1461 1461 1464 1468 1455 1457 1447 1439 1438 1437 1438 1439 1441 1443 1445 1447 1448 1450 1451 1452 1454 1455 1458 1459 1461 1464 1467 1469 1471 1474 1476 1478 1481 1483 1485 1486
1462 1460 1459 1460 1461 1461 1462 1467 1471 1469 1468 1460 1446 1447 1444 1434 1433 1435 1437 1438 1440 1442 1443 1445 1446 1447 1448 1449 1451 1453 1455 1456 1458 1460 1463 1466 1469 1471 1473 1475 1477 1479 1481 1483
1465 1463 1459 1459 1460 1461 1462 1463 1469 1469 1463 1455 1448 1448 1440 1433 1432 1433 1436 1438 1440 1441 1442 1443 1444 1445 1446 1447 1449 1450 1452 1454 1456 1458 1460 1463 1465 1467 1470 1472 1474 1476 1478 1480
1465 1462 1457 1457 1458 1459 1460 1460 1460 1465 1462 1460 1451 1442 1437 1433 1433 1435 1436 1438 1439 1440 1441 1442 1443 1444 1445 1445 1446 1448 1449 1451 1453 1455 1457 1459 1462 1464 1466 1468 1471 1472 1474 1476
1463 1466 1459 1457 1458 1458 1458 1458 1463 1466 1465 1458 1446 1442 1442 1436 1436 1437 1437 1438 1439 1440 1441 1442 1442 1442 1443 1443 1444 1446 1447 1449 1450 1452 1454 1456 1458 1461 1463 1465 1467 1469 1471 1473
1463 1467 1463 1459 1459 1458 1460 1461 1461 1462 1459 1459 1453 1447 1436 1437 1437 1437 1438 1438 1439 1440 1440 1440 1441 1441 1441 1441 1442 1443 1445 1446 1448 1449 1451 1453 1455 1458 1460 1462 1464 1466 1468 1469
1462 1465 1466 1459 1455 1454 1455 1456 1460 1465 1462 1456 1455 1451 1435 1435 1436 1436 1437 1438 1438 1439 1439 1440 1440 1440 1439 1440 1440 1441 1443 1444 1445 1447 1449 1451 1453 1455 1457 1459 1461 1462 1464 1466
1463 1467 1469 1462 1461 1458 1457 1455 1457 1460 1460 1458 1457 1450 1436 1435 1436 1436 1437 1437 1437 1438 1438 1438 1438 1438 1438 1438 1438 1439 1440 1442 1443 1445 1446 1448 1450 1452 1453 1455 1457 1459 1460 1462
1462 1465 1467 1464 1457 1458 1458 1456 1455 1459 1461 1456 1450 1444 1438 1437 1437 1436 1436 1436 1436 1436 1437 1437 1437 1437 1436 1436 1436 1437 1438 1439 1440 1442 1443 1445 1447 1449 1450 1452 1454 1455 1457 1458
1462 1464 1462 1459 1455 1454 1454 1454 1453 1455 1453 1453 1445 1441 1437 1436 1436 1435 1435 1435 1435 1435 1435 1435 1435 1435 1434 1434 1434 1435 1435 1437 1438 1439 1441 1442 1444 1446 1447 1449 1450 1452 1453 1455
1462 1463 1461 1459 1454 1452 1451 1448 1448 1448 1446 1445 1442 1439 1434 1433 1433 1434 1434 1434 1433 1434 1434 1433 1433 1433 1432 1432 1432 1432 1433 1434 1435 1436 1438 1440 1441 1443 1444 1446 1447 1449 1450 1451
1462 1463 1462 1457 1454 1452 1451 1442 1442 1442 1439 1439 1439 1435 1433 1433 1432 1432 1432 1432 1432 1432 1432 1432 1431 1431 1430 1430 1430 1430 1431 1432 1433 1434 1435 1437 1438 1439 1441 1442 1444 1445 1446 1448
1460 1461 1461 1459 1459 1459 1439 1431 1431 1433 1432 1432 1432 1431 1430 1431 1430 1430 1430 1430 1430 1430 1430 1430 1429 1429 1429 1428 1428 1428 1429 1429 1430 1431 1433 1434 1435 1436 1437 1438 1440 1441 1443 1444
1454 1457 1458 1458 1456 1444 1433 1430 1431 1433 1431 1428 1428 1428 1428 1428 1428 1427 1427 1427 1428 1428 1427 1427 1427 1426 1426 1426 1426 1426 1426 1427 1428 1429 1430 1431 1432 1432 1433 1435 1436 1437 1439 1440
1451 1453 1457 1454 1453 1446 1432 1429 1428 1431 1432 1425 1425 1425 1426 1427 1429 1427 1426 1425 1425 1425 1425 1424 1424 1423 1423 1424 1424 1424 1424 1424 1425 1426 1427 1428 1428 1429 1430 1431 1432 1434 1435 1436
1452 1452 1453 1451 1448 1438 1430 1428 1429 1435 1430 1424 1423 1423 1423 1424 1425 1424 1423 1423 1422 1422 1422 1421 1421 1420 1420 1421 1421 1421 1421 1422 1423 1423 1424 1425 1425 1426 1427 1428 1429 1430 1431 1432
1445 1447 1447 1446 1445 1438 1429 1428 1430 1428 1424 1423 1422 1421 1421 1421 1421 1421 1420 1420 1419 1419 1418 1418 1418 1417 1418 1418 1418 1418 1418 1419 1420 1420 1421 1422 1422 1423 1424 1425 1426 1427 1427 1428
1437 1437 1436 1436 1433 1426 1425 1424 1424 1423 1422 1421 1420 1419 1419 1418 1417 1417 1417 1416 1416 1416 1416 1415 1415 1415 1415 1415 1415 1415 1416 1416 1417 1417 1418 1418 1419 1420 1421 1422 1422 1423 1424 1424
1431 1430 1431 1430 1424 1422 1422 1421 1421 1420 1420 1418 1418 1417 1416 1415 1414 1414 1414 1413 1413 1413 1413 1412 1412 1412 1411 1412 1412 1412 1412 1413 1413 1414 1414 1415 1416 1417 1417 1418 1419 1419 1420 1420
1428 1429 1429 1427 1422 1420 1418 1418 1418 1417 1416 1415 1415 1414 1413 1412 1411 1411 1410 1410 1410 1410 1409 1409 1409 1408 1408 1408 1408 1409 1409 1409 1410 1410 1411 1412 1412 1413 1414 1414 1415 1416 1416 1417
1423 1424 1425 1422 1418 1418 1416 1415 1415 1414 1413 1412 1411 1410 1410 1409 1408 1407 1406 1406 1406 1406 1406 1406 1405 1405 1405 1405 1405 1405 1406 1406 1406 1406 1407 1408 1408 1409 1410 1410 1411 1412 1413 1414